星链-34717 (STARLINK-34717)

导读

STARLINK-34717是美国于2025年7月31日发射的星链卫星,属于SpaceX打造的星链星座网络计划的组成部分。星链计划旨在构建覆盖全球的低轨卫星互联网星座,为全球各地用户提供高速、稳定的宽带互联网接入服务,该卫星进一步扩充了星链星座的在轨规模,推进全球卫星互联网覆盖进程。

基本信息
目录编号:
65060
目录名称:
STARLINK-34717
国际标识:
2025-165E
轨道中心:
EARTH
卫星名称:
星链-34717
卫星全名:
星链-34717 (STARLINK-34717)
卫星状态:
在轨 (已飞行400 天)
发射日期:
2025-07-31 UTC
国别 :
美国 (US)
星等 :
--
轨道信息
数据来源 国际轨道数据
星历时间: 2026-09-04T00:02:20+0800
1天前
查看轨道信息
半长轴: 6927.644km
偏心率: 0.0001958
轨道倾角: 97.285°
近地点辐角 112.638°
升交点赤经 318.539°
平近点角 247.505°
近地点: 548.15km
远地点: 550.864km
周期: 95.640分钟
每日圈数: 15.056515
详细信息
固有亮度:
5
最大亮度:
2.5
卫星平台:
Starlink V1.0
覆盖范围:
全球
运营商:
太空探索技术公司
运营商所在国:
美国
制造商(研发单位):
太空探索技术公司
制造商所在国:
美国
使用方式:
暂无
卫星简介
Starlink 计划是 SpaceX 推出的全球卫星互联网项目,通过发射低轨道卫星,为全球尤其是偏远地区提供高速、低延迟的互联网服务。自 2019 年起,Starlink 已部署数千颗卫星,旨在缩小全球数字鸿沟,推动互联网普及。该项目还为军事、航空等行业提供通信支持,带来广泛经济效益。
2D轨道图
3D轨道图
轨道高度分析图
轨道倾角分析图
轨道综合分析图
查看轨道综合分析图
交会数据列表
事件ID 空间交会对象 最接近时刻(TCA) 交会距离 交会风险概率(CRP) 交会风险指数(CRI) 操作
CDM_260905-000306-506006-979021
2026-09-05T
00:03:19+0000
1.717 km
极远距离
2.589157E-6 低风险 0.43
CDM_260903-151704-303006-506021
2026-09-03T
15:17:04+0000
2.764 km
极远距离
1.433535E-6 低风险 0.38
CDM_260906-093506-405506-506021
2026-09-06T
09:35:49+0000
2.958 km
极远距离
1.27917E-6 低风险 0.37